TIANLIAN 2-04

Last updated on Sat Dec 13 2025 00:02:52 GMT+0000 (Coordinated Universal Time)

1 63361U 25062A 25345.93543054 -.00000128 00000+0 00000+0 0 9996 2 63361 4.8550 277.0163 0036123 2.2504 218.4290 1.00272072 2725
UTC large
Height (km)
Speed (km/s)
/
Latitude / Longitude
Inclination (degrees)
Orbital Period (minutes)
Azimuth
Elevation
Range (km)
Doppler Factor

Next 0 passes for location: London (51.5072 / 0.1276)

Sorry there are no passes over London.